Location: Unspecified
(0.0000°N, 0.0000°E)
Time: 16:49:49
(UTC+00:00)

COSMO-SKYMED 1 - Visible Passes

Search period start: 23 May 2017 00:00
Search period end: 02 June 2017 00:00
Orbit: 621 x 623 km, 97.9° (Epoch: 22 May)

Date Brightness Start Highest point End Pass type
(mag) Time Alt. Az. Time Alt. Az. Time Alt. Az.
23 May 6.2 04:40:15 10° E 04:41:12 11° ENE 04:42:09 10° ENE visible
23 May 5.5 18:22:36 10° NNW 18:26:00 23° WNW 18:29:25 10° SW visible
24 May 5.6 04:56:03 10° SE 04:59:10 19° ENE 05:02:16 10° NNE visible
24 May 6.0 18:42:04 10° NW 18:43:58 13° WNW 18:45:54 10° WSW visible
25 May 4.5 05:13:12 10° SE 05:17:09 34° ENE 05:21:04 10° NNE visible
26 May 3.2 05:30:50 10° SSE 05:35:08 64° ENE 05:39:25 10° N visible
28 May 5.1 18:16:21 10° NNW 18:20:01 27° WNW 18:23:43 10° SW visible
29 May 5.7 04:50:32 10° ESE 04:53:11 16° ENE 04:55:50 10° NE visible
29 May 5.8 18:35:26 10° NW 18:38:00 16° WNW 18:40:36 10° WSW visible
30 May 4.9 05:07:26 10° SE 05:11:10 28° ENE 05:14:52 10° NNE visible
31 May 3.6 05:24:56 10° SSE 05:29:09 52° ENE 05:33:21 10° N visible
